sat.trackr.live / text

‹ back to catalog

STARLINK-3697

NORAD 51962 · 2022-025G

PAYLOAD ACTIVE UNKNOWN

§ Identity

Operator
Country
US
Launch date
2022-03-09
Launch site
AFETR
Launch vehicle
Mass (kg)
RCS (m²)

Purposes: comms

External: N2YO · Heavens-Above · Gunter

§ Orbital elements

Epoch: 2026-09-19T07:28:08.955264Z

Period
94.01 min
Inclination
53.1602°
Eccentricity
0.0001450
Mean motion
15.31713754 rev/d
Perigee alt
469.7 km
Apogee alt
471.7 km
Semi-major
6,848.8 km
B*
6.4711e-5
RAAN
203.2175°
Arg perigee
85.1922°
Mean anomaly
274.9245°
Rev number
25,068

§ Raw data

STARLINK-36971 51962U 22025G   26262.31121476  .00001644  00000+0  64711-4 0  99942 51962  53.1602 203.2175 0001450  85.1922 274.9245 15.31713754250680

JSON: /api/v1/satellites/51962 · /tle

For live sub-satellite position, see the globe view (requires WebGL).

§ Visibility from observer

Set your observer location to see the next 7 days of passes ≥ 10°. The values pass through the URL so the page stays shareable.

No JS? Fill the form by hand. The geolocation button needs JavaScript.